TimeCST,TemperatureF,Dew PointF,Humidity,Sea Level PressureIn,VisibilityMPH,Wind Direction,Wind SpeedMPH,Gust SpeedMPH,PrecipitationIn,Events,Conditions,WindDirDegrees,DateUTC
12:56 AM,57.9,37.9,47,30.19,10.0,Calm,Calm,-,N/A,,Clear,0,2012-11-06 06:56:00
1:56 AM,59.0,36.0,42,30.19,10.0,NW,4.6,-,N/A,,Clear,310,2012-11-06 07:56:00
2:56 AM,55.0,37.0,51,30.19,10.0,Calm,Calm,-,N/A,,Clear,0,2012-11-06 08:56:00
3:56 AM,54.0,36.0,51,30.19,10.0,Calm,Calm,-,N/A,,Clear,0,2012-11-06 09:56:00
4:56 AM,53.1,37.9,57,30.19,10.0,Calm,Calm,-,N/A,,Clear,0,2012-11-06 10:56:00
5:56 AM,50.0,37.0,61,30.22,10.0,Calm,Calm,-,N/A,,Clear,0,2012-11-06 11:56:00
6:56 AM,51.1,37.0,59,30.24,10.0,NW,3.5,-,N/A,,Clear,320,2012-11-06 12:56:00
7:56 AM,55.0,37.9,53,30.26,10.0,Calm,Calm,-,N/A,,Clear,0,2012-11-06 13:56:00
8:56 AM,60.1,39.0,46,30.28,10.0,Calm,Calm,-,N/A,,Clear,0,2012-11-06 14:56:00
9:56 AM,63.0,39.0,41,30.27,10.0,Calm,Calm,-,N/A,,Clear,0,2012-11-06 15:56:00
10:56 AM,66.9,39.9,37,30.27,10.0,Variable,3.5,-,N/A,,Clear,0,2012-11-06 16:56:00
11:56 AM,69.1,39.0,33,30.17,10.0,Calm,Calm,-,N/A,,Clear,0,2012-11-06 17:56:00
12:56 PM,73.9,42.1,32,30.13,10.0,Variable,3.5,-,N/A,,Clear,0,2012-11-06 18:56:00
1:56 PM,75.9,39.9,27,30.10,10.0,Calm,Calm,-,N/A,,Clear,0,2012-11-06 19:56:00
2:56 PM,79.0,39.9,25,30.09,10.0,WNW,8.1,-,N/A,,Clear,290,2012-11-06 20:56:00
3:56 PM,80.1,39.9,24,30.15,10.0,SSW,8.1,-,N/A,,Clear,210,2012-11-06 21:56:00
4:56 PM,80.1,39.9,24,30.06,10.0,Calm,Calm,-,N/A,,Clear,0,2012-11-06 22:56:00
5:56 PM,73.0,43.0,34,30.08,10.0,East,3.5,-,N/A,,Clear,100,2012-11-06 23:56:00
6:56 PM,68.0,46.0,45,30.09,10.0,Calm,Calm,-,N/A,,Clear,0,2012-11-07 00:56:00
7:56 PM,64.9,46.9,52,30.11,10.0,Calm,Calm,-,N/A,,Clear,0,2012-11-07 01:56:00
8:56 PM,61.0,46.9,60,30.12,10.0,Calm,Calm,-,N/A,,Clear,0,2012-11-07 02:56:00
9:56 PM,59.0,46.9,64,30.12,10.0,Calm,Calm,-,N/A,,Clear,0,2012-11-07 03:56:00
10:56 PM,57.9,46.9,67,30.11,10.0,Calm,Calm,-,N/A,,Clear,0,2012-11-07 04:56:00
11:56 PM,59.0,45.0,60,30.20,10.0,Calm,Calm,-,N/A,,Clear,0,2012-11-07 05:56:00